Time,TemperatureF,DewpointF,PressureIn,WindDirection,WindDirectionDegrees,WindSpeedMPH,WindSpeedGustMPH,Humidity,HourlyPrecipIn,Conditions,Clouds,dailyrainin,SoftwareType,DateUTC
2013-05-15 16:30:00,92.9,30.6,29.58,SW,232,11.0,11.0,11,0.00,,,0.00,Wunderground v.1.15,2013-05-15 23:30:00,
2013-05-15 16:35:00,93.6,31.2,29.57,SW,215,9.0,9.0,11,0.00,,,0.00,Wunderground v.1.15,2013-05-15 23:35:00,
2013-05-15 16:40:00,94.3,31.7,29.57,WSW,242,8.0,9.0,11,0.00,,,0.00,Wunderground v.1.15,2013-05-15 23:40:00,
2013-05-15 16:45:00,94.0,31.5,29.57,SSW,213,9.0,11.0,11,0.00,,,0.00,Wunderground v.1.15,2013-05-15 23:45:00,
2013-05-15 16:50:00,94.3,33.9,29.57,SW,233,9.0,11.0,12,0.00,,,0.00,Wunderground v.1.15,2013-05-15 23:50:00,
2013-05-15 17:00:00,93.8,29.0,29.57,SW,232,11.0,11.0,10,0.00,,,0.00,Wunderground v.1.15,2013-05-16 00:00:00,
2013-05-15 17:05:00,93.4,28.7,29.57,SW,215,9.0,11.0,10,0.00,,,0.00,Wunderground v.1.15,2013-05-16 00:05:00,
2013-05-15 18:05:00,91.4,27.2,29.55,SW,233,7.0,7.0,10,0.00,,,0.00,Wunderground v.1.15,2013-05-16 01:05:00,
2013-05-15 18:10:00,91.4,27.2,29.55,SW,231,6.0,10.0,10,0.00,,,0.00,Wunderground v.1.15,2013-05-16 01:10:00,
2013-05-15 18:20:00,91.4,27.2,29.55,SW,219,6.0,10.0,10,0.00,,,0.00,Wunderground v.1.15,2013-05-16 01:20:00,
2013-05-15 18:25:00,90.7,26.6,29.55,SW,220,8.0,11.0,10,0.00,,,0.00,Wunderground v.1.15,2013-05-16 01:25:00,
2013-05-15 18:35:00,90.3,26.3,29.55,SSW,205,7.0,9.0,10,0.00,,,0.00,Wunderground v.1.15,2013-05-16 01:35:00,
2013-05-15 18:40:00,89.9,28.3,29.55,SSW,196,7.0,7.0,11,0.00,,,0.00,Wunderground v.1.15,2013-05-16 01:40:00,
2013-05-15 18:50:00,88.6,27.3,29.55,SSW,209,8.0,8.0,11,0.00,,,0.00,Wunderground v.1.15,2013-05-16 01:50:00,
2013-05-15 18:55:00,88.4,27.2,29.55,South,187,8.0,10.0,11,0.00,,,0.00,Wunderground v.1.15,2013-05-16 01:55:00,
2013-05-15 19:05:00,86.7,30.0,29.55,SW,216,9.0,10.0,13,0.00,,,0.00,Wunderground v.1.15,2013-05-16 02:05:00,
2013-05-15 19:15:00,86.1,27.5,29.55,SSW,204,6.0,8.0,12,0.00,,,0.00,Wunderground v.1.15,2013-05-16 02:15:00,
2013-05-15 19:20:00,85.3,28.9,29.55,SW,215,7.0,13.0,13,0.00,,,0.00,Wunderground v.1.15,2013-05-16 02:20:00,
2013-05-15 19:25:00,85.1,26.8,29.55,SW,227,7.0,13.0,12,0.00,,,0.00,Wunderground v.1.15,2013-05-16 02:25:00,
2013-05-15 19:35:00,84.1,27.9,29.55,SSW,200,7.0,7.0,13,0.00,,,0.00,Wunderground v.1.15,2013-05-16 02:35:00,
2013-05-15 19:40:00,83.8,27.7,29.55,SSW,206,6.0,6.0,13,0.00,,,0.00,Wunderground v.1.15,2013-05-16 02:40:00,
2013-05-15 19:50:00,83.0,28.9,29.56,SSW,198,7.0,15.0,14,0.00,,,0.00,Wunderground v.1.15,2013-05-16 02:50:00,
2013-05-15 20:00:00,82.0,29.8,29.56,SSW,197,8.0,8.0,15,0.00,,,0.00,Wunderground v.1.15,2013-05-16 03:00:00,
2013-05-15 20:05:00,81.8,29.6,29.56,WSW,246,8.0,8.0,15,0.00,,,0.00,Wunderground v.1.15,2013-05-16 03:05:00,
2013-05-15 20:15:00,81.4,29.3,29.56,SW,225,7.0,9.0,15,0.00,,,0.00,Wunderground v.1.15,2013-05-16 03:15:00,
2013-05-15 20:25:00,80.9,32.0,29.57,SSW,213,7.0,7.0,17,0.00,,,0.00,Wunderground v.1.15,2013-05-16 03:25:00,
2013-05-15 20:30:00,80.7,30.3,29.57,WSW,237,9.0,9.0,16,0.00,,,0.00,Wunderground v.1.15,2013-05-16 03:30:00,
2013-05-15 20:45:00,80.1,29.8,29.57,SW,233,9.0,9.0,16,0.00,,,0.00,Wunderground v.1.15,2013-05-16 03:45:00,
2013-05-15 20:50:00,80.5,30.2,29.57,SW,219,7.0,10.0,16,0.00,,,0.00,Wunderground v.1.15,2013-05-16 03:50:00,
2013-05-15 20:55:00,80.3,30.0,29.57,WSW,238,6.0,10.0,16,0.00,,,0.00,Wunderground v.1.15,2013-05-16 03:55:00,
2013-05-15 21:05:00,80.1,29.8,29.58,SW,221,7.0,10.0,16,0.00,,,0.00,Wunderground v.1.15,2013-05-16 04:05:00,
2013-05-15 21:10:00,79.9,29.7,29.58,SW,232,7.0,7.0,16,0.00,,,0.00,Wunderground v.1.15,2013-05-16 04:10:00,
2013-05-15 21:15:00,79.8,31.1,29.58,SSW,197,7.0,7.0,17,0.00,,,0.00,Wunderground v.1.15,2013-05-16 04:15:00,
2013-05-15 21:25:00,79.6,29.4,29.58,SW,221,9.0,9.0,16,0.00,,,0.00,Wunderground v.1.15,2013-05-16 04:25:00,
2013-05-15 21:35:00,79.0,30.4,29.59,SSW,204,5.0,7.0,17,0.00,,,0.00,Wunderground v.1.15,2013-05-16 04:35:00,
2013-05-15 21:40:00,79.2,29.1,29.59,SW,225,5.0,5.0,16,0.00,,,0.00,Wunderground v.1.15,2013-05-16 04:40:00,
2013-05-15 21:50:00,78.5,31.4,29.59,SSW,206,1.0,1.0,18,0.00,,,0.00,Wunderground v.1.15,2013-05-16 04:50:00,
2013-05-15 22:00:00,78.1,29.7,29.59,SW,214,3.0,3.0,17,0.00,,,0.00,Wunderground v.1.15,2013-05-16 05:00:00,
2013-05-15 22:05:00,78.3,31.3,29.59,SW,214,5.0,5.0,18,0.00,,,0.00,Wunderground v.1.15,2013-05-16 05:05:00,
2013-05-15 22:15:00,78.1,31.1,29.59,South,181,6.0,6.0,18,0.00,,,0.00,Wunderground v.1.15,2013-05-16 05:15:00,
2013-05-15 22:20:00,77.9,31.0,29.60,SSW,202,6.0,6.0,18,0.00,,,0.00,Wunderground v.1.15,2013-05-16 05:20:00,
2013-05-15 22:25:00,78.1,31.1,29.60,SSW,202,6.0,11.0,18,0.00,,,0.00,Wunderground v.1.15,2013-05-16 05:25:00,
2013-05-15 22:35:00,77.9,32.3,29.60,SW,227,5.0,7.0,19,0.00,,,0.00,Wunderground v.1.15,2013-05-16 05:35:00,
2013-05-15 22:45:00,78.1,32.5,29.60,SW,228,7.0,7.0,19,0.00,,,0.00,Wunderground v.1.15,2013-05-16 05:45:00,
2013-05-15 22:50:00,77.9,32.3,29.60,SSW,194,7.0,7.0,19,0.00,,,0.00,Wunderground v.1.15,2013-05-16 05:50:00,
2013-05-15 23:00:00,77.4,34.4,29.60,SSW,213,5.0,10.0,21,0.00,,,0.00,Wunderground v.1.15,2013-05-16 06:00:00,
2013-05-15 23:05:00,76.8,35.1,29.60,SW,229,7.0,10.0,22,0.00,,,0.00,Wunderground v.1.15,2013-05-16 06:05:00,
2013-05-15 23:15:00,76.8,35.1,29.60,SW,235,9.0,12.0,22,0.00,,,0.00,Wunderground v.1.15,2013-05-16 06:15:00,
2013-05-15 23:20:00,76.3,34.6,29.60,SSW,213,9.0,12.0,22,0.00,,,0.00,Wunderground v.1.15,2013-05-16 06:20:00,
2013-05-15 23:25:00,76.7,33.8,29.60,SSW,207,9.0,12.0,21,0.00,,,0.00,Wunderground v.1.15,2013-05-16 06:25:00,
2013-05-15 23:35:00,76.8,32.7,29.59,SSW,200,10.0,12.0,20,0.00,,,0.00,Wunderground v.1.15,2013-05-16 06:35:00,
2013-05-15 23:45:00,76.5,33.6,29.59,SW,221,9.0,14.0,21,0.00,,,0.00,Wunderground v.1.15,2013-05-16 06:45:00,
2013-05-15 23:50:00,76.7,31.3,29.60,SW,225,9.0,15.0,19,0.00,,,0.00,Wunderground v.1.15,2013-05-16 06:50:00,